Location: Cheyres
(46.8153°N, 6.7877°E)
Time: 11:48:41
(UTC+00:00)

Gbstr 26 Del rocket - Pass Details

Date: 22 September 2021
Orbit: 492 x 1263 km, 51.8° (Epoch: 18 October)

Event Time Altitude Azimuth Distance (km) Brightness Sun altitude
Rises 19:45:22 0° 194° (SSW) 3,896 7.0 -23.1°
Reaches altitude 10° 19:48:22 10° 183° (S) 3,038 6.3 -23.6°
Enters shadow 19:48:52 12° 180° (S) 2,910 6.2 -23.7°
